Terminal Aerodrome Forecast
Issued by NWS

Home | Current Version | Previous Version | Text Only | Print | Product List | Glossary On
Versions: 1 2 3 4 5 6 7 8 9 10 11 12 13 14 15 16 17 18 19 20 21 22 23 24 25 26 27 28
000
FTUS45 KBOU 240531
TAFAPA
TAF
KAPA 240531Z 2406/2506 15008KT P6SM BKN020 BKN060 OVC110
     FM240620 15008KT P6SM SCT060 BKN100 BKN200
     FM240900 16008KT P6SM SCT220
     FM241200 19008KT P6SM SCT220
     FM242000 02006KT P6SM FEW100 SCT220=

USA.gov is the U.S. government's official web portal to all federal, state and local government web resources and services.